Date String (YYYY-MM-DD hh:mm:ss) UTC,Instrument flags,absolute air pressure of the measurement (hPa),sample flow rate (lpm),inlet stack bypass flow (lpm),air temperature of the measurement (°C),ambient temperature measured by the external sensor (°C),aerosol sample conditioner tube jacket temperature (°C),OPC LED temperature (°C),internal box temperature (°C),relative humidity of the measurement (%),span deviation,mass concentration of particles derived from Lorenz-Mie calculation of OPC scattering (μg/m³),mass concentration of particles derived from Lorenz-Mie calculation of OPC scattering (μg/m³),mass concentration of particles derived from Lorenz-Mie calculation of OPC scattering (μg/m³)
DateTimeUTC,F1_M11,P_M11,Q1_M11,Q2_M11,T1_M11,T2_M11,T3_M11,T4_M11,T5_M11,U1_M11,ZSPAN_M11,X2_M11,X0_M11,X1_M11
2023-11-10 17:00:00,SystemResetWarning,0832.7,5.00,000.00,022.0,021.4,000.0,030.1,023.6,11.2,0000.0,0003.80,0007.43,0003.26
2023-11-10 17:01:00,SystemResetWarning,0832.7,5.00,000.00,022.0,021.5,000.0,030.2,023.6,10.9,0000.0,0003.80,0007.44,0003.24
2023-11-10 17:02:00,SystemResetWarning,0832.7,5.00,000.00,022.0,021.5,000.0,030.2,023.6,10.9,0000.0,0003.78,0007.66,0003.23
2023-11-10 17:03:00,SystemResetWarning,0832.7,5.01,000.00,022.1,021.5,000.0,030.2,023.6,10.8,0000.0,0003.77,0007.61,0003.23
2023-11-10 17:04:00,SystemResetWarning,0832.7,5.00,000.00,022.1,021.5,000.0,030.2,023.6,10.8,0000.0,0003.75,0007.56,0003.22
2023-11-10 17:05:00,SystemResetWarning,0832.9,5.01,000.00,022.1,021.5,000.0,030.2,023.6,10.9,0000.0,0003.74,0007.63,0003.21
2023-11-10 17:06:00,SystemResetWarning,0832.9,5.00,000.00,022.1,021.5,000.0,030.3,023.7,10.9,0000.0,0003.73,0007.69,0003.21
2023-11-10 17:07:00,SystemResetWarning,0832.7,5.00,000.00,022.1,021.5,000.0,030.3,023.7,11.1,0000.0,0003.73,0007.71,0003.21
2023-11-10 17:08:00,SystemResetWarning,0832.7,5.00,000.00,022.1,021.6,000.0,030.3,023.8,10.9,0000.0,0003.74,0007.76,0003.20
2023-11-10 17:09:00,SystemResetWarning,0832.8,4.99,000.00,022.2,021.6,000.0,030.3,023.8,11.0,0000.0,0003.72,0007.39,0003.19
2023-11-10 17:10:00,SystemResetWarning,0832.7,5.00,000.00,022.2,021.6,000.0,030.3,023.8,11.0,0000.0,0003.72,0007.17,0003.19
2023-11-10 17:11:00,SystemResetWarning,0832.8,5.00,000.00,022.2,021.6,000.0,030.3,023.8,10.9,0000.0,0003.74,0007.18,0003.19
2023-11-10 17:12:00,SystemResetWarning,0832.7,5.01,000.00,022.2,021.6,000.0,030.4,023.8,10.9,0000.0,0003.73,0007.21,0003.19
2023-11-10 17:13:00,SystemResetWarning,0832.8,5.00,000.00,022.2,021.7,000.0,030.4,023.8,11.0,0000.0,0003.74,0006.79,0003.19
2023-11-10 17:14:00,SystemResetWarning,0832.7,4.99,000.00,022.3,021.7,000.0,030.4,023.9,10.6,0000.0,0003.71,0006.61,0003.19
2023-11-10 17:15:00,SystemResetWarning,0832.7,4.99,000.00,022.3,021.7,000.0,030.4,023.9,10.7,0000.0,0003.71,0006.58,0003.19
2023-11-10 17:16:00,SystemResetWarning,0832.8,5.01,000.00,022.3,021.7,000.0,030.4,023.9,10.7,0000.0,0003.69,0006.36,0003.18
2023-11-10 17:17:00,SystemResetWarning,0832.7,5.01,000.00,022.3,021.7,000.0,030.5,023.9,10.8,0000.0,0003.65,0006.04,0003.17
2023-11-10 17:18:00,SystemResetWarning,0832.8,5.00,000.00,022.3,021.8,000.0,030.5,023.9,10.8,0000.0,0003.62,0005.88,0003.16
2023-11-10 17:19:00,SystemResetWarning,0832.7,4.99,000.00,022.4,021.8,000.0,030.5,023.9,10.5,0000.0,0003.59,0006.54,0003.16
2023-11-10 17:20:00,SystemResetWarning,0832.7,4.99,000.00,022.4,021.8,000.0,030.5,024.0,10.6,0000.0,0003.60,0006.63,0003.16
2023-11-10 17:21:00,SystemResetWarning,0832.7,5.01,000.00,022.4,021.8,000.0,030.5,024.0,10.5,0000.0,0003.58,0006.69,0003.15
2023-11-10 17:22:00,SystemResetWarning,0832.6,5.01,000.00,022.4,021.9,000.0,030.6,024.0,10.5,0000.0,0003.56,0007.60,0003.15
2023-11-10 17:23:00,SystemResetWarning,0832.7,5.00,000.00,022.4,021.9,000.0,030.6,024.1,10.3,0000.0,0003.53,0007.51,0003.14
2023-11-10 17:24:00,SystemResetWarning,0832.7,4.99,000.00,022.5,021.9,000.0,030.6,024.1,10.3,0000.0,0003.54,0007.50,0003.13
2023-11-10 17:25:00,SystemResetWarning,0832.6,4.99,000.00,022.5,021.9,000.0,030.6,024.1,10.2,0000.0,0003.54,0007.52,0003.13
2023-11-10 17:26:00,SystemResetWarning,0832.7,5.01,000.00,022.5,022.0,000.0,030.6,024.1,10.1,0000.0,0003.55,0007.56,0003.13
2023-11-10 17:27:00,SystemResetWarning,0832.7,5.00,000.00,022.5,022.0,000.0,030.6,024.1,9.9,0000.0,0003.55,0007.58,0003.13
2023-11-10 17:28:00,SystemResetWarning,0832.6,5.01,000.00,022.6,022.0,000.0,030.7,024.1,10.0,0000.0,0003.60,0007.67,0003.12
2023-11-10 17:29:00,SystemResetWarning,0832.6,5.00,000.00,022.6,022.0,000.0,030.7,024.2,10.3,0000.0,0003.60,0007.79,0003.12
2023-11-10 17:30:00,SystemResetWarning,0832.6,5.00,000.00,022.6,022.0,000.0,030.7,024.2,10.4,0000.0,0003.61,0007.63,0003.11
2023-11-10 17:31:00,SystemResetWarning,0832.7,5.00,000.00,022.6,022.1,000.0,030.7,024.2,10.3,0000.0,0003.59,0007.60,0003.09
2023-11-10 17:32:00,SystemResetWarning,0832.6,5.00,000.00,022.6,022.1,000.0,030.7,024.2,10.2,0000.0,0003.60,0007.61,0003.07
2023-11-10 17:33:00,SystemResetWarning,0832.7,5.00,000.00,022.7,022.1,000.0,030.8,024.3,10.1,0000.0,0003.58,0006.42,0003.04
2023-11-10 17:34:00,SystemResetWarning,0832.7,5.00,000.00,022.7,022.1,000.0,030.8,024.3,10.1,0000.0,0003.61,0006.73,0003.04
2023-11-10 17:35:00,SystemResetWarning,0832.6,4.99,000.00,022.7,022.1,000.0,030.8,024.3,10.0,0000.0,0003.59,0006.71,0003.03
2023-11-10 17:36:00,SystemResetWarning,0832.7,5.00,000.00,022.7,022.2,000.0,030.8,024.3,10.0,0000.0,0003.59,0006.70,0003.02
2023-11-10 17:37:00,SystemResetWarning,0832.6,5.01,000.00,022.7,022.2,000.0,030.8,024.3,10.0,0000.0,0003.59,0006.78,0002.99
2023-11-10 17:38:00,SystemResetWarning,0832.6,5.00,000.00,022.8,022.2,000.0,030.9,024.4,10.0,0000.0,0003.61,0007.00,0002.98
2023-11-10 17:39:00,SystemResetWarning,0832.6,5.00,000.00,022.8,022.2,000.0,030.9,024.4,10.0,0000.0,0003.59,0006.96,0002.97
2023-11-10 17:40:00,SystemResetWarning,0832.6,5.00,000.00,022.8,022.2,000.0,030.9,024.4,9.8,0000.0,0003.59,0006.97,0002.97
2023-11-10 17:41:00,SystemResetWarning,0832.6,5.00,000.00,022.8,022.3,000.0,030.9,024.5,9.8,0000.0,0003.58,0006.46,0002.96
2023-11-10 17:42:00,SystemResetWarning,0832.6,5.00,000.00,022.9,022.3,000.0,031.0,024.5,9.7,0000.0,0003.58,0007.81,0002.96
2023-11-10 17:43:00,SystemResetWarning,0832.6,5.00,000.00,022.9,022.3,000.0,031.0,024.5,9.7,0000.0,0003.57,0007.78,0002.98
2023-11-10 17:44:00,SystemResetWarning,0832.6,5.01,000.00,022.9,022.4,000.0,031.0,024.5,9.5,0000.0,0003.57,0007.84,0002.98
2023-11-10 17:45:00,SystemResetWarning,0832.6,5.00,000.00,022.9,022.4,000.0,031.0,024.5,9.4,0000.0,0003.55,0007.83,0002.97
2023-11-10 17:46:00,SystemResetWarning,0832.5,5.00,000.00,022.9,022.4,000.0,031.0,024.6,9.4,0000.0,0003.58,0008.35,0002.96
2023-11-10 17:47:00,SystemResetWarning,0832.5,5.00,000.00,023.0,022.4,000.0,031.1,024.6,9.3,0000.0,0003.58,0008.36,0002.95
2023-11-10 17:48:00,SystemResetWarning,0832.5,5.00,000.00,023.0,022.4,000.0,031.1,024.6,9.4,0000.0,0003.59,0008.48,0002.94
2023-11-10 17:49:00,SystemResetWarning,0832.5,5.00,000.00,023.0,022.4,000.0,031.1,024.6,9.3,0000.0,0003.56,0008.46,0002.91
2023-11-10 17:50:00,SystemResetWarning,0832.5,5.00,000.00,023.0,022.5,000.0,031.1,024.6,9.3,0000.0,0003.55,0008.50,0002.87
2023-11-10 17:51:00,SystemResetWarning,0832.6,5.00,000.00,023.0,022.5,000.0,031.1,024.7,9.3,0000.0,0003.52,0008.65,0002.85
2023-11-10 17:52:00,SystemResetWarning,0832.5,5.00,000.00,023.1,022.5,000.0,031.2,024.7,9.0,0000.0,0003.51,0008.95,0002.82
2023-11-10 17:53:00,SystemResetWarning,0832.5,5.00,000.00,023.1,022.5,000.0,031.2,024.7,8.9,0000.0,0003.53,0008.20,0002.80
2023-11-10 17:54:00,SystemResetWarning,0832.5,5.00,000.00,023.1,022.5,000.0,031.2,024.7,8.9,0000.0,0003.52,0007.97,0002.78
2023-11-10 17:55:00,SystemResetWarning,0832.5,5.00,000.00,023.1,022.6,000.0,031.2,024.8,9.0,0000.0,0003.48,0007.85,0002.76
2023-11-10 17:56:00,SystemResetWarning,0832.5,5.00,000.00,023.2,022.6,000.0,031.2,024.8,9.0,0000.0,0003.46,0007.79,0002.75
2023-11-10 17:57:00,SystemResetWarning,0832.6,5.00,000.00,023.2,022.6,000.0,031.3,024.8,9.1,0000.0,0003.42,0007.48,0002.73
2023-11-10 17:58:00,SystemResetWarning,0832.5,5.00,000.00,023.2,022.7,000.0,031.3,024.8,9.0,0000.0,0003.39,0007.67,0002.70
2023-11-10 17:59:00,SystemResetWarning,0832.5,5.00,000.00,023.2,022.7,000.0,031.3,024.8,9.0,0000.0,0003.38,0007.56,0002.68
